Location: Clarkson Observatory
(44.6781°N, 74.9517°W)
Time: 12:01:52
(UTC-04:00)

ISS - Visible Passes

Search period start: 22 July 2018 00:00
Search period end: 01 August 2018 00:00
Orbit: 402 x 408 km, 51.6° (Epoch: 22 July)

Date Brightness Start Highest point End Pass type
(mag) Time Alt. Az. Time Alt. Az. Time Alt. Az.
22 Jul -1.3 00:43:48 10° NW 00:46:32 23° N 00:49:16 10° ENE visible
22 Jul -2.6 02:20:24 10° NW 02:23:35 43° NNE 02:26:45 10° E visible
22 Jul -3.2 03:57:01 10° WNW 04:00:01 33° SW 04:03:01 10° SSE visible
22 Jul -2.8 22:14:00 10° W 22:17:12 49° NNW 22:20:25 10° NE visible
22 Jul -1.4 23:51:28 10° WNW 23:54:12 24° N 23:56:57 10° NE visible
23 Jul -1.9 01:28:19 10° NW 01:30:56 31° N 01:30:56 31° N visible
23 Jul -3.7 21:21:46 10° WSW 21:25:01 79° NNW 21:28:19 10° ENE visible
23 Jul -1.5 22:59:02 10° WNW 23:01:53 26° N 23:04:43 10° NE visible
24 Jul -1.7 00:36:11 10° NW 00:39:03 26° N 00:39:32 25° NNE visible
24 Jul -1.9 22:06:35 10° W 22:09:34 32° NNW 22:12:34 10° NE visible
24 Jul -1.4 23:43:57 10° NW 23:46:42 24° N 23:48:37 15° NE visible
25 Jul -1.1 01:20:28 10° NW 01:21:14 16° NW 01:21:14 16° NW visible
25 Jul -2.5 21:14:08 10° W 21:17:17 43° NNW 21:20:27 10° NE visible
25 Jul -1.4 22:51:37 10° WNW 22:54:20 23° N 22:57:03 10° NE visible
26 Jul -1.8 00:28:22 10° NW 00:30:30 29° NNW 00:30:30 29° NNW visible
26 Jul -1.5 21:59:10 10° WNW 22:01:57 25° N 22:04:45 10° NE visible
26 Jul -1.9 23:36:12 10° NW 23:39:07 28° NNE 23:39:49 25° NE visible
27 Jul -1.8 21:06:40 10° WNW 21:09:36 29° NNW 21:12:32 10° NE visible
27 Jul -1.6 22:43:58 10° NW 22:46:44 24° N 22:49:12 12° ENE visible
28 Jul -1.5 00:20:26 10° NW 00:21:49 23° NW 00:21:49 23° NW visible
28 Jul -1.5 21:51:38 10° NW 21:54:20 23° N 21:57:03 10° NE visible
28 Jul -2.5 23:28:17 10° NW 23:31:14 39° NNE 23:31:14 39° NNE visible
29 Jul -1.6 20:59:10 10° WNW 21:01:56 24° N 21:04:41 10° NE visible
29 Jul -2.1 22:36:06 10° NW 22:39:04 30° NNE 22:40:41 19° ENE visible
30 Jul -1.1 00:12:30 10° WNW 00:13:18 16° WNW 00:13:18 16° WNW visible
30 Jul -1.8 21:43:52 10° NW 21:46:40 25° N 21:49:29 10° ENE visible
30 Jul -2.8 23:20:16 10° WNW 23:22:46 46° NW 23:22:46 46° NW visible
31 Jul -3.0 22:28:05 10° NW 22:31:16 44° NNE 22:32:14 33° ENE visible
